Location: Boursonne
(49.2024°N, 3.0468°E)
Time: 19:11:29
(UTC+00:00)

Cosmos 1302 Rocket - Pass Details

Date: 03 March 2021
Orbit: 756 x 777 km, 74.0° (Epoch: 14 April)

Event Time Altitude Azimuth Distance (km) Brightness Sun altitude
Rises 18:08:08 0° 201° (SSW) 3,199 7.6 -6.3°
Reaches altitude 10° 18:10:29 10° 201° (SSW) 2,279 6.8 -6.7°
Maximum altitude 18:15:40 89° 112° (ESE) 766 4.0 -7.5°
Drops below altitude 10° 18:20:54 10° 24° (NNE) 2,304 6.2 -8.4°
Sets 18:23:17 0° 24° (NNE) 3,237 7.0 -8.8°
